Location: Newark
(44.5208°N, 2.4294°E)
Time: 16:33:53
(UTC+00:00)

OTV 5 (USA 277) - Visible Passes

Search period start: 16 October 2019 00:00
Search period end: 26 October 2019 00:00
Orbit: 310 x 324 km, 54.5° (Epoch: 08 October)

Date Brightness Start Highest point End Pass type
(mag) Time Alt. Az. Time Alt. Az. Time Alt. Az.
16 Oct ? 04:07:19 15° NNE 04:07:19 15° NNE 04:08:50 10° NE visible
17 Oct ? 04:21:37 21° N 04:22:01 22° NNE 04:24:15 10° ENE visible
18 Oct ? 04:36:01 32° N 04:36:44 40° NNE 04:39:21 10° ESE visible
19 Oct ? 04:50:31 40° WNW 04:51:20 79° SW 04:54:04 10° SE visible
20 Oct ? 05:05:08 25° WSW 05:05:48 28° SW 05:08:12 10° SSE visible
21 Oct ? 05:19:54 11° WSW 05:20:07 11° SW 05:21:03 10° SSW visible
